Location: Middlebury
(44.0153°N, 73.1678°W)
Time: 09:48:48
(UTC-04:00)

TESLA ROADSTER/FALCON 9H - Visible Passes

Search period start: 18 July 2019 00:00
Search period end: 28 July 2019 00:00
Orbit: 180 x 6939 km, 29.0° (Epoch: 07 February)

Date Brightness Start Highest point End Pass type
(mag) Time Alt. Az. Time Alt. Az. Time Alt. Az.
25 Jul ? 22:40:56 10° SSW 22:41:26 11° SSW 22:41:26 11° SSW visible
26 Jul ? 21:35:12 10° SSW 21:38:26 14° SSE 21:39:34 13° SSE visible
27 Jul ? 22:10:42 10° SW 22:14:50 18° S 22:14:50 18° S visible
